Time,TemperatureF,DewpointF,PressureIn,WindDirection,WindDirectionDegrees,WindSpeedMPH,WindSpeedGustMPH,Humidity,HourlyPrecipIn,Conditions,Clouds,dailyrainin,SoftwareType,DateUTC
2013-07-29 00:02:00,59.0,56.0,-100.00,SE,125,1.0,2.0,91,0.00,,,-99.99,,2013-07-29 05:02:00,
2013-07-29 00:12:00,59.0,56.0,-100.00,SE,125,1.0,2.0,91,0.00,,,-99.99,,2013-07-29 05:12:00,
2013-07-29 00:53:00,58.0,56.0,-100.00,SE,130,2.0,2.0,93,0.00,,,-99.99,,2013-07-29 05:53:00,
2013-07-29 01:02:00,58.0,56.0,-100.00,SSE,150,1.0,2.0,94,0.00,,,-99.99,,2013-07-29 06:02:00,
2013-07-29 01:12:00,58.0,56.0,-100.00,SSE,150,1.0,2.0,94,0.00,,,-99.99,,2013-07-29 06:12:00,
2013-07-29 01:52:00,57.0,55.0,-100.00,ESE,110,2.0,3.0,95,0.00,,,-99.99,,2013-07-29 06:52:00,
2013-07-29 02:02:00,56.0,54.0,-100.00,SE,125,1.0,3.0,95,0.00,,,-99.99,,2013-07-29 07:02:00,
2013-07-29 02:12:00,56.0,54.0,-100.00,SE,125,1.0,3.0,95,0.00,,,-99.99,,2013-07-29 07:12:00,
2013-07-29 02:53:00,49.0,48.0,-100.00,ESE,120,1.0,2.0,96,0.00,,,-99.99,,2013-07-29 07:53:00,
2013-07-29 03:02:00,55.0,54.0,-100.00,SE,130,1.0,2.0,96,0.00,,,-99.99,,2013-07-29 08:02:00,
2013-07-29 03:12:00,55.0,54.0,-100.00,SE,130,1.0,2.0,96,0.00,,,-99.99,,2013-07-29 08:12:00,
2013-07-29 03:52:00,55.0,54.0,-100.00,SE,125,2.0,3.0,96,0.00,,,-99.99,,2013-07-29 08:52:00,
2013-07-29 04:02:00,55.0,54.0,-100.00,ESE,115,2.0,3.0,96,0.00,,,-99.99,,2013-07-29 09:02:00,
2013-07-29 04:12:00,55.0,54.0,-100.00,ESE,115,2.0,3.0,96,0.00,,,-99.99,,2013-07-29 09:12:00,
2013-07-29 04:53:00,55.0,54.0,-100.00,ESE,120,3.0,4.0,96,0.00,,,-99.99,,2013-07-29 09:53:00,
2013-07-29 05:02:00,53.0,52.0,-100.00,ESE,120,3.0,6.0,96,0.00,,,-99.99,,2013-07-29 10:02:00,
2013-07-29 05:13:00,53.0,52.0,-100.00,ESE,120,3.0,6.0,96,0.00,,,-99.99,,2013-07-29 10:13:00,
2013-07-29 05:35:00,54.0,53.0,-100.00,ESE,120,1.0,5.0,96,0.00,,,-99.99,,2013-07-29 10:35:00,
2013-07-29 05:55:00,54.0,53.0,-100.00,ESE,115,2.0,5.0,96,0.00,,,-99.99,,2013-07-29 10:55:00,
2013-07-29 06:04:00,54.0,53.0,-100.00,ESE,115,2.0,5.0,96,0.00,,,-99.99,,2013-07-29 11:04:00,
2013-07-29 06:15:00,54.0,53.0,-100.00,ESE,115,2.0,5.0,96,0.00,,,-99.99,,2013-07-29 11:15:00,
2013-07-29 06:59:00,54.0,53.0,-100.00,ESE,115,3.0,5.0,96,0.00,,,-99.99,,2013-07-29 11:59:00,
2013-07-29 07:07:00,54.0,53.0,-100.00,ESE,110,2.0,5.0,96,0.00,,,-99.99,,2013-07-29 12:07:00,
2013-07-29 07:14:00,54.0,53.0,-100.00,ESE,110,2.0,5.0,96,0.00,,,-99.99,,2013-07-29 12:14:00,
2013-07-29 07:44:00,54.0,54.0,-100.00,ESE,110,3.0,4.0,96,0.00,,,-99.99,,2013-07-29 12:44:00,
2013-07-29 07:58:00,55.0,54.0,-100.00,ESE,115,3.0,4.0,96,0.00,,,-99.99,,2013-07-29 12:58:00,
2013-07-29 08:03:00,56.0,55.0,-100.00,ESE,110,4.0,7.0,96,0.00,,,-99.99,,2013-07-29 13:03:00,
2013-07-29 08:16:00,56.0,55.0,-100.00,ESE,110,4.0,7.0,96,0.00,,,-99.99,,2013-07-29 13:16:00,
2013-07-29 08:35:00,56.0,55.0,-100.00,SE,145,2.0,5.0,96,0.00,,,-99.99,,2013-07-29 13:35:00,
2013-07-29 08:57:00,58.0,57.0,-100.00,ESE,110,3.0,6.0,94,0.00,,,-99.99,,2013-07-29 13:57:00,
2013-07-29 09:04:00,59.0,57.0,-100.00,ESE,120,4.0,7.0,93,0.00,,,-99.99,,2013-07-29 14:04:00,
2013-07-29 09:12:00,59.0,57.0,-100.00,ESE,120,4.0,7.0,93,0.00,,,-99.99,,2013-07-29 14:12:00,
2013-07-29 09:57:00,64.0,56.0,-100.00,SSE,150,5.0,9.0,75,0.00,,,-99.99,,2013-07-29 14:57:00,
2013-07-29 10:13:00,65.0,56.0,-100.00,SSE,150,7.0,9.0,72,0.00,,,-99.99,,2013-07-29 15:13:00,
2013-07-29 10:55:00,69.0,56.0,-100.00,ESE,110,6.0,9.0,62,0.00,,,-99.99,,2013-07-29 15:55:00,
2013-07-29 11:05:00,70.0,56.0,-100.00,ESE,120,6.0,9.0,60,0.00,,,-99.99,,2013-07-29 16:05:00,
2013-07-29 11:57:00,66.0,49.0,-100.00,SE,125,5.0,9.0,53,0.00,,,-99.99,,2013-07-29 16:57:00,
2013-07-29 12:07:00,72.0,53.0,-100.00,South,185,6.0,9.0,52,0.00,,,-99.99,,2013-07-29 17:07:00,
2013-07-29 12:13:00,72.0,53.0,-100.00,South,185,6.0,9.0,52,0.00,,,-99.99,,2013-07-29 17:13:00,
2013-07-29 12:59:00,71.0,53.0,-100.00,SE,140,4.0,9.0,54,0.00,,,-99.99,,2013-07-29 17:59:00,
2013-07-29 13:05:00,71.0,53.0,-100.00,ESE,120,4.0,9.0,54,0.00,,,-99.99,,2013-07-29 18:05:00,
2013-07-29 13:13:00,71.0,53.0,-100.00,ESE,120,4.0,9.0,54,0.00,,,-99.99,,2013-07-29 18:13:00,
2013-07-29 13:59:00,71.0,54.0,-100.00,SE,135,4.0,9.0,55,0.00,,,-99.99,,2013-07-29 18:59:00,
2013-07-29 14:15:00,72.0,55.0,-100.00,South,190,4.0,9.0,55,0.00,,,-99.99,,2013-07-29 19:15:00,
2013-07-29 14:58:00,75.0,54.0,-100.00,SE,130,6.0,9.0,48,0.00,,,-99.99,,2013-07-29 19:58:00,
2013-07-29 15:15:00,75.0,53.0,-100.00,SSE,165,5.0,9.0,46,0.00,,,-99.99,,2013-07-29 20:15:00,
2013-07-29 15:58:00,76.0,52.0,-100.00,SSE,165,5.0,9.0,43,0.00,,,-99.99,,2013-07-29 20:58:00,
2013-07-29 16:04:00,76.0,52.0,-100.00,ESE,115,4.0,9.0,43,0.00,,,-99.99,,2013-07-29 21:04:00,
2013-07-29 16:16:00,76.0,52.0,-100.00,ESE,115,4.0,9.0,43,0.00,,,-99.99,,2013-07-29 21:16:00,
2013-07-29 17:00:00,74.0,52.0,-100.00,SE,145,4.0,9.0,46,0.00,,,-99.99,,2013-07-29 22:00:00,
2013-07-29 17:15:00,74.0,53.0,-100.00,SW,225,4.0,9.0,46,0.00,,,-99.99,,2013-07-29 22:15:00,
2013-07-29 17:57:00,72.0,55.0,-100.00,SSW,205,4.0,9.0,54,0.00,,,-99.99,,2013-07-29 22:57:00,
2013-07-29 18:04:00,73.0,55.0,-100.00,South,185,4.0,9.0,54,0.00,,,-99.99,,2013-07-29 23:04:00,
2013-07-29 18:13:00,73.0,55.0,-100.00,South,185,4.0,9.0,54,0.00,,,-99.99,,2013-07-29 23:13:00,
2013-07-29 18:57:00,73.0,55.0,-100.00,South,185,6.0,9.0,52,0.00,,,-99.99,,2013-07-29 23:57:00,
2013-07-29 19:16:00,73.0,55.0,-100.00,South,190,4.0,9.0,53,0.00,,,-99.99,,2013-07-30 00:16:00,
2013-07-29 19:34:00,72.0,56.0,-100.00,SE,140,4.0,9.0,56,0.00,,,-99.99,,2013-07-30 00:34:00,
2013-07-29 20:05:00,71.0,56.0,-100.00,South,185,4.0,9.0,60,0.00,,,-99.99,,2013-07-30 01:05:00,
2013-07-29 20:16:00,71.0,56.0,-100.00,South,185,4.0,9.0,60,0.00,,,-99.99,,2013-07-30 01:16:00,
2013-07-29 20:35:00,69.0,57.0,-100.00,SE,140,5.0,9.0,65,0.00,,,-99.99,,2013-07-30 01:35:00,
2013-07-29 21:05:00,68.0,57.0,-100.00,SE,125,5.0,9.0,68,0.00,,,-99.99,,2013-07-30 02:05:00,
2013-07-29 21:13:00,68.0,57.0,-100.00,SE,125,5.0,9.0,68,0.00,,,-99.99,,2013-07-30 02:13:00,
2013-07-29 21:34:00,67.0,58.0,-100.00,SE,145,6.0,9.0,71,0.00,,,-99.99,,2013-07-30 02:34:00,
2013-07-29 21:56:00,67.0,59.0,-100.00,SE,135,6.0,9.0,77,0.00,,,-99.99,,2013-07-30 02:56:00,
2013-07-29 22:08:00,66.0,59.0,-100.00,SE,145,6.0,9.0,78,0.00,,,-99.99,,2013-07-30 03:08:00,
2013-07-29 22:55:00,65.0,59.0,-100.00,SE,145,6.0,9.0,81,0.00,,,-99.99,,2013-07-30 03:55:00,
2013-07-29 23:03:00,65.0,59.0,-100.00,ESE,120,5.0,9.0,81,0.00,,,-99.99,,2013-07-30 04:03:00,
2013-07-29 23:12:00,65.0,59.0,-100.00,ESE,120,5.0,9.0,81,0.00,,,-99.99,,2013-07-30 04:12:00,
2013-07-29 23:43:00,65.0,60.0,-100.00,South,190,2.0,6.0,83,0.00,,,-99.99,,2013-07-30 04:43:00,
2013-07-29 23:53:00,65.0,61.0,-100.00,SSE,150,2.0,7.0,88,0.00,,,-99.99,,2013-07-30 04:53:00,